Location: Vale
(35.4830°N, 81.3830°W)
Time: 07:20:02
(UTC-04:00)

Cosmos 2237 Rocket - Visible Passes

Search period start: 20 October 2014 00:00
Search period end: 30 October 2014 00:00
Orbit: 835 x 850 km, 71.0° (Epoch: 19 October)

Date Brightness Start Highest point End Pass type
(mag) Time Alt. Az. Time Alt. Az. Time Alt. Az.
20 Oct 3.3 06:11:20 10° N 06:16:43 45° ENE 06:22:03 10° SE visible
20 Oct 3.5 19:17:34 10° SE 19:21:18 18° E 19:25:01 10° ENE visible
20 Oct 2.9 20:59:21 10° SW 21:04:51 52° WNW 21:08:25 22° N visible
21 Oct 3.4 05:56:37 10° N 06:01:57 42° ENE 06:07:14 10° SE visible
21 Oct 3.6 19:03:01 10° SE 19:06:34 17° E 19:10:08 10° ENE visible
21 Oct 2.8 20:44:33 10° SW 20:50:06 55° WNW 20:55:38 10° NNE visible
22 Oct 3.4 05:41:54 10° N 05:47:11 40° ENE 05:52:26 10° SE visible
22 Oct 2.8 20:29:46 10° SW 20:35:20 58° WNW 20:40:56 10° NNE visible
23 Oct 3.5 05:27:11 10° N 05:32:25 38° ENE 05:37:36 10° SE visible
23 Oct 3.2 07:11:45 10° NW 07:16:12 25° WSW 07:20:38 10° SSW visible
23 Oct 2.7 20:14:59 10° SSW 20:20:35 61° WNW 20:26:12 10° NNE visible
24 Oct 3.5 05:12:28 10° N 05:17:39 37° ENE 05:22:47 10° SE visible
24 Oct 3.1 06:56:54 10° NW 07:01:28 26° WSW 07:06:00 10° SSW visible
24 Oct 2.6 20:00:12 10° SSW 20:05:49 64° WNW 20:11:28 10° NNE visible
25 Oct 3.6 04:59:52 21° N 05:02:53 35° ENE 05:07:57 10° SE visible
25 Oct 3.0 06:42:05 10° NW 06:46:44 27° WSW 06:51:22 10° SSW visible
25 Oct 2.6 19:45:26 10° SSW 19:51:04 67° WNW 19:56:43 10° NNE visible
26 Oct 3.6 04:47:28 32° NE 04:48:07 33° ENE 04:53:08 10° SE visible
26 Oct 3.0 06:29:27 20° WNW 06:32:00 29° WSW 06:36:44 10° SSW visible
26 Oct 2.5 19:30:40 10° SSW 19:36:19 71° WNW 19:41:59 10° NNE visible
27 Oct 4.0 04:35:02 27° E 04:35:02 27° E 04:38:17 10° ESE visible
27 Oct 2.9 06:16:59 30° W 06:17:17 30° WSW 06:22:05 10° SSW visible
27 Oct 2.5 19:15:54 10° SSW 19:21:34 75° WNW 19:27:15 10° NNE visible
28 Oct 4.7 04:22:28 14° ESE 04:22:28 14° ESE 04:23:27 10° ESE visible
28 Oct 3.3 06:04:26 26° SW 06:04:26 26° SW 06:07:26 10° SSW visible
28 Oct 2.4 19:01:09 10° SSW 19:06:49 79° WNW 19:12:30 10° NNE visible
28 Oct 5.1 20:50:49 10° WNW 20:51:47 10° NW 20:52:46 10° NW visible
29 Oct 4.1 05:51:44 15° SSW 05:51:44 15° SSW 05:52:47 10° SSW visible
29 Oct 2.4 18:46:23 10° SSW 18:52:04 82° WNW 18:57:45 10° NNE visible
29 Oct 5.0 20:35:28 10° WNW 20:36:59 11° NW 20:38:30 10° NW visible
